[[{"header":{"parameterUnit":"m.s-1","parameterCategory":1,"la1":30.2991,"la2":30.254,"lo1":-89.0895,"lo2":-89.0444,"dy":0.0017,"dx":0.0017,"nx":28,"ny":28,"refTime":"2025-02-04T03:00:00:Z","depth":0,"parameterNumber":2,"parameterNumberName":"U-component_of_WINDS"},"data":[0,0,0,0,0,0,0,0,0,0,0,0,0,0,0,0,0,0,0,0,0,0,0,0,0,0,0,0,0,0,0,0,0,0,0,0,0,0,0,0,0,0,0,0,0,0,0,0,0,0,0,0,0,0,0,0,0,0,-1.2483,-1.2483,0,-1.2475,-1.2475,-1.2475,-1.2413,-1.2411,-1.2409,-1.2408,-1.2401,-1.2403,-1.2404,0,0,0,0,0,0,0,0,0,0,0,0,0,-1.2447,-1.2448,-1.2483,-1.2483,-1.2483,-1.2475,-1.2475,-1.2475,-1.2413,-1.2411,-1.2409,-1.2407,-1.2401,-1.2402,-1.2404,0,0,0,0,0,0,0,0,0,0,0,0,0,-1.2453,-1.2448,-1.2483,-1.2451,-1.2448,-1.2475,-1.2475,-1.2475,-1.2413,-1.2411,-1.2409,-1.2406,-1.24,-1.2402,-1.2404,-1.2462,0,0,-1.241,-1.2411,0,0,0,0,0,0,0,0,-1.2453,-1.2455,-1.2456,-1.2453,-1.245,-1.2442,-1.246,-1.2471,-1.2414,-1.2426,-1.2408,-1.2405,-1.2417,-1.2417,-1.2421,-1.2462,-1.2462,-1.241,-1.2411,-1.2412,-1.2413,0,0,0,0,0,0,0,-1.2453,-1.2455,-1.248,-1.2456,-1.2452,-1.2438,-1.2436,-1.2462,-1.2435,-1.2425,-1.2421,-1.242,-1.2415,-1.2419,-1.242,-1.2462,-1.241,-1.2412,-1.2413,-1.2414,-1.2551,-1.2553,0,0,0,0,0,0,-1.2457,-1.2455,-1.248,-1.248,-1.2446,-1.244,-1.2438,-1.2447,-1.2434,-1.243,-1.2422,-1.2418,-1.2417,-1.2418,-1.242,-1.2487,-1.2412,-1.2414,-1.2415,-1.2548,-1.2551,-1.2554,0,0,0,0,0,0,-1.2456,-1.2459,-1.2481,-1.2466,-1.2468,-1.2443,-1.2454,-1.2448,-1.2452,-1.2432,-1.2427,-1.2432,-1.2415,-1.2417,-1.2452,-1.2486,-1.2415,-1.2416,-1.2545,-1.2549,-1.2553,-1.2622,0,0,0,0,0,0,-1.2455,-1.246,-1.2481,-1.2467,-1.2469,-1.2512,-1.2456,-1.245,-1.2456,-1.2449,-1.244,-1.2436,-1.2414,-1.245,-1.2454,-1.2487,-1.2418,-1.2542,-1.2547,-1.2551,-1.2616,-1.2627,-1.2637,0,0,0,0,0,-1.2454,-1.2501,-1.2482,-1.2485,-1.2494,-1.2514,-1.2515,-1.2489,-1.2459,-1.248,-1.2467,-1.2436,-1.2482,-1.2454,-1.2458,-1.2492,-1.254,-1.2546,-1.2551,-1.2612,-1.2625,-1.2636,0,0,0,0,0,0,-1.2519,-1.2498,-1.2477,-1.252,-1.252,-1.2504,-1.253,-1.2504,-1.2512,-1.2505,-1.2473,-1.2471,-1.2511,-1.2505,-1.2475,-1.2549,-1.2506,-1.2512,-1.255,-1.2563,-1.2573,-1.2573,-1.2419,0,0,0,0,0,-1.2538,-1.2555,-1.2537,-1.2577,-1.2577,-1.2554,-1.2562,-1.2541,-1.2539,-1.2539,-1.2529,-1.2528,-1.2543,-1.2553,-1.2565,-1.2616,-1.2613,-1.2642,-1.2652,-1.2661,-1.2666,-1.2693,-1.2706,-1.2573,-1.2572,-1.2572,0,0,-1.2578,-1.2569,-1.2582,-1.259,-1.2586,-1.2606,-1.2554,-1.2576,-1.2591,-1.2542,-1.2574,-1.2567,-1.2565,-1.2609,-1.2627,-1.2605,-1.2703,-1.2668,-1.2675,-1.2676,-1.27,-1.2713,-1.2724,-1.2576,-1.2576,-1.2575,0,0,-1.266,-1.2655,-1.2688,-1.2686,-1.2682,-1.2667,-1.2675,-1.2663,-1.2657,-1.2688,-1.2653,-1.267,-1.2695,-1.2695,-1.2699,-1.2784,-1.2755,-1.2789,-1.2841,-1.2868,-1.2879,-1.2888,-1.2917,-1.2928,-1.2795,-1.2795,-1.2795,0,-1.271,-1.2737,-1.2708,-1.2733,-1.2738,-1.2695,-1.2729,-1.2729,-1.273,-1.2734,-1.271,-1.2741,-1.2737,-1.278,-1.2801,-1.2805,-1.2814,-1.2788,-1.2879,-1.2888,-1.2896,-1.2924,-1.2936,-1.2799,-1.2799,-1.2798,-1.2798,0,-1.2798,-1.2818,-1.2845,-1.2846,-1.2854,-1.2884,-1.286,-1.2872,-1.2852,-1.284,-1.2873,-1.2867,-1.2877,-1.2886,-1.2867,-1.2927,-1.2913,-1.2885,-1.2841,-1.2913,-1.2939,-1.295,-1.2805,-1.2803,-1.2802,-1.2801,0,0,-1.2918,-1.2905,-1.2915,-1.2915,-1.2909,-1.2924,-1.2952,-1.2962,-1.2973,-1.2976,-1.2998,-1.3022,-1.2996,-1.3,-1.2981,-1.3004,-1.3071,-1.2973,-1.2972,-1.299,-1.3137,-1.3157,-1.317,-1.3054,-1.3056,-1.3057,-1.3137,0,-1.2996,-1.3042,-1.3018,-1.3067,-1.3085,-1.3047,-1.3071,-1.3071,-1.3061,-1.3075,-1.3064,-1.3081,-1.3046,-1.3048,-1.307,-1.3059,-1.31,-1.3053,-1.3074,-1.3075,-1.3074,-1.3183,-1.3205,-1.328,-1.3147,-1.3148,-1.315,0,-1.3092,-1.3099,-1.315,-1.3141,-1.3148,-1.317,-1.3178,-1.3192,-1.3192,-1.3183,-1.3188,-1.3164,-1.3192,-1.315,-1.3188,-1.3156,-1.3164,-1.3161,-1.3163,-1.3162,-1.3115,-1.3185,-1.3303,-1.3314,-1.3165,-1.3164,-1.3163,0,-1.3174,-1.3196,-1.3229,-1.3231,-1.3222,-1.3238,-1.3235,-1.3232,-1.324,-1.3248,-1.3252,-1.3264,-1.3269,-1.3279,-1.3258,-1.323,-1.33,-1.3256,-1.3293,-1.3293,-1.3307,-1.3306,-1.3428,-1.3316,-1.3315,-1.3315,-1.3315,0,-1.3262,-1.3295,-1.3265,-1.3286,-1.3321,-1.3295,-1.3331,-1.3324,-1.3323,-1.3341,-1.331,-1.3329,-1.3301,-1.3318,-1.3303,-1.3337,-1.334,-1.3333,-1.3329,-1.3335,-1.3336,-1.3338,-1.3332,-1.3318,-1.3317,-1.3317,-1.3316,0,-1.3358,-1.3339,-1.3373,-1.3362,-1.336,-1.3387,-1.3378,-1.3397,-1.3386,-1.341,-1.3415,-1.3397,-1.3415,-1.3396,-1.3413,-1.3402,-1.3448,-1.3436,-1.3448,-1.3444,-1.3481,-1.3477,-1.3607,-1.3622,-1.3502,-1.3503,-1.3504,0,-1.3414,-1.3438,-1.343,-1.3441,-1.344,-1.3457,-1.3465,-1.344,-1.345,-1.3452,-1.3471,-1.3486,-1.3497,-1.3528,-1.3516,-1.353,-1.3517,-1.3562,-1.3519,-1.3525,-1.3516,-1.3514,-1.3517,-1.357,-1.3571,-1.3572,-1.3573,0,-1.3517,-1.3507,-1.3519,-1.3529,-1.3539,-1.3546,-1.355,-1.3561,-1.3536,-1.3548,-1.3566,-1.3574,-1.3592,-1.3607,-1.3617,-1.3615,-1.3591,-1.3587,-1.3596,-1.3602,-1.3607,-1.3604,-1.347,-1.3584,-1.3583,-1.3582,-1.3581,-1.3581,-1.3594,-1.3613,-1.3611,-1.3626,-1.3627,-1.3632,-1.3649,-1.364,-1.3654,-1.3666,-1.3652,-1.3673,-1.3674,-1.3685,-1.3686,-1.3703,-1.3684,-1.3698,-1.3701,-1.3704,-1.3709,-1.3607,-1.3705,-1.3705,-1.3705,-1.3704,-1.3704,0,-1.3693,-1.369,-1.3705,-1.3711,-1.3724,-1.37,-1.3704,-1.3716,-1.3735,-1.3737,-1.3749,-1.377,-1.3785,-1.3776,-1.379,-1.3805,-1.3794,-1.381,-1.3807,-1.3807,-1.3725,-1.3716,-1.3818,-1.3818,-1.3818,-1.3818,-1.3818,-1.3818,-1.3746,-1.3778,-1.3769,-1.3801,-1.3798,-1.3819,-1.3823,-1.3828,-1.383,-1.3854,-1.3867,-1.3861,-1.3859,-1.3872,-1.3886,-1.3883,-1.3889,-1.3908,-1.3901,-1.3824,-1.3813,-1.3802,-1.3793,-1.391,-1.391,-1.3981,-1.3982,-1.3982]},{"header":{"parameterUnit":"m.s-1","parameterCategory":1,"la1":30.2991,"la2":30.254,"lo1":-89.0895,"lo2":-89.0444,"dy":0.0017,"dx":0.0017,"nx":28,"ny":28,"refTime":"2025-02-04T03:00:00:Z","depth":0,"parameterNumber":3,"parameterNumberName":"V-component_of_WINDS"},"data":[0,0,0,0,0,0,0,0,0,0,0,0,0,0,0,0,0,0,0,0,0,0,0,0,0,0,0,0,0,0,0,0,0,0,0,0,0,0,0,0,0,0,0,0,0,0,0,0,0,0,0,0,0,0,0,0,0,0,2.3538,2.3538,0,2.3519,2.3519,2.3519,2.3556,2.3558,2.3559,2.356,2.3537,2.3536,2.3534,0,0,0,0,0,0,0,0,0,0,0,0,0,2.3604,2.3603,2.3538,2.3538,2.3537,2.3519,2.3519,2.3519,2.3556,2.3558,2.3559,2.3561,2.3538,2.3536,2.3534,0,0,0,0,0,0,0,0,0,0,0,0,0,2.3579,2.3602,2.3538,2.3554,2.3555,2.3519,2.3519,2.3519,2.3556,2.3558,2.356,2.3561,2.3539,2.3536,2.3534,2.348,0,0,2.3526,2.3524,0,0,0,0,0,0,0,0,2.3581,2.3577,2.3552,2.3553,2.3554,2.3542,2.3534,2.3506,2.3555,2.3555,2.356,2.3562,2.3537,2.3535,2.3527,2.3479,2.3478,2.3525,2.3524,2.3523,2.3522,0,0,0,0,0,0,0,2.3582,2.3578,2.353,2.3551,2.3553,2.3562,2.356,2.3529,2.3536,2.3556,2.3558,2.3556,2.3538,2.353,2.3527,2.3478,2.3525,2.3523,2.3521,2.352,2.3389,2.3387,0,0,0,0,0,0,2.3582,2.3579,2.3531,2.353,2.3572,2.3559,2.3557,2.3544,2.3537,2.3537,2.3554,2.3558,2.3533,2.353,2.3526,2.3466,2.3523,2.352,2.3519,2.3391,2.3388,2.3386,0,0,0,0,0,0,2.3584,2.3578,2.3532,2.3555,2.355,2.3556,2.3541,2.3543,2.3534,2.3536,2.3537,2.3544,2.3535,2.353,2.3493,2.3466,2.3519,2.3517,2.3393,2.339,2.3387,2.3343,0,0,0,0,0,0,2.3586,2.3578,2.3558,2.3555,2.3549,2.3498,2.3539,2.3541,2.353,2.3534,2.3527,2.3527,2.3536,2.3496,2.349,2.3463,2.3515,2.3395,2.3392,2.3388,2.3347,2.3339,2.3332,0,0,0,0,0,2.3588,2.3545,2.3557,2.3551,2.3524,2.3497,2.3493,2.3505,2.3528,2.3508,2.3509,2.3527,2.3469,2.3492,2.3485,2.3457,2.3397,2.3393,2.3389,2.335,2.3341,2.3332,0,0,0,0,0,0,2.3542,2.3544,2.3558,2.3512,2.3504,2.3503,2.3478,2.3494,2.3478,2.3483,2.3497,2.3495,2.3455,2.3452,2.3477,2.3407,2.3437,2.3431,2.341,2.3401,2.3394,2.3396,2.3512,0,0,0,0,0,2.3527,2.3506,2.3508,2.3468,2.3464,2.3472,2.346,2.347,2.3462,2.3458,2.3457,2.3448,2.3428,2.3414,2.3396,2.3347,2.3347,2.3324,2.3317,2.3311,2.3306,2.3282,2.3273,2.3372,2.3372,2.3372,0,0,2.3495,2.3494,2.3479,2.3459,2.3454,2.3432,2.3468,2.3442,2.3426,2.3454,2.342,2.3418,2.3409,2.3367,2.3348,2.3363,2.3279,2.3305,2.33,2.3299,2.3277,2.3268,2.3259,2.3369,2.337,2.337,0,0,2.3427,2.3422,2.339,2.3385,2.3378,2.3384,2.3377,2.3374,2.3375,2.3341,2.3362,2.3343,2.3307,2.3301,2.3293,2.3225,2.3242,2.3219,2.318,2.3157,2.315,2.3143,2.3121,2.3112,2.3213,2.3213,2.3213,0,2.3387,2.3356,2.3371,2.3345,2.3336,2.3363,2.3331,2.3325,2.3311,2.3305,2.3322,2.3281,2.3276,2.3234,2.3218,2.321,2.3202,2.322,2.315,2.3143,2.3137,2.3116,2.3107,2.3211,2.3211,2.3211,2.3212,0,2.3309,2.3287,2.3261,2.3251,2.3239,2.3209,2.3221,2.3207,2.3219,2.3224,2.319,2.3186,2.3168,2.3159,2.3169,2.3119,2.3129,2.3148,2.3178,2.3125,2.3105,2.3097,2.3207,2.3208,2.3209,2.3209,0,0,2.3209,2.321,2.3201,2.3198,2.3193,2.3176,2.3149,2.3134,2.3123,2.3113,2.3091,2.3063,2.3081,2.3072,2.3082,2.3062,2.3012,2.3084,2.3084,2.3072,2.2959,2.2946,2.2936,2.3023,2.3021,2.302,2.296,0,2.3143,2.3098,2.3112,2.3066,2.3047,2.3074,2.305,2.3045,2.3049,2.3033,2.3037,2.3017,2.3042,2.3038,2.3019,2.3022,2.2989,2.3026,2.3003,2.3002,2.3006,2.2925,2.2911,2.2854,2.2953,2.2951,2.295,0,2.3059,2.3049,2.3002,2.3004,2.2997,2.2975,2.2965,2.2949,2.2944,2.2949,2.294,2.2955,2.2929,2.296,2.2925,2.295,2.2942,2.2942,2.294,2.2939,2.2974,2.2924,2.2836,2.2828,2.2938,2.2939,2.294,0,2.2994,2.2968,2.2938,2.2934,2.2935,2.292,2.292,2.2917,2.2908,2.2898,2.2893,2.2879,2.2872,2.2861,2.2872,2.2893,2.2836,2.2868,2.284,2.284,2.2827,2.2828,2.2738,2.2819,2.2819,2.282,2.282,0,2.2919,2.2889,2.2909,2.289,2.2859,2.2876,2.2844,2.2847,2.2845,2.2827,2.2848,2.2831,2.2847,2.2831,2.284,2.2811,2.2807,2.281,2.2813,2.2809,2.2809,2.2804,2.2809,2.2817,2.2818,2.2818,2.2819,0,2.284,2.2852,2.2821,2.2826,2.2827,2.2804,2.2808,2.2791,2.2797,2.2775,2.2771,2.278,2.2764,2.2774,2.2756,2.2762,2.2725,2.2732,2.2727,2.273,2.2702,2.2705,2.2608,2.2597,2.2683,2.2682,2.2682,0,2.2792,2.2771,2.2775,2.2766,2.2765,2.2749,2.2741,2.2757,2.2748,2.2743,2.2727,2.2713,2.2702,2.2674,2.2679,2.2666,2.2674,2.2641,2.2672,2.267,2.2676,2.2678,2.2677,2.2635,2.2634,2.2633,2.2632,0,2.2706,2.2714,2.2703,2.2694,2.2685,2.2678,2.2673,2.2664,2.2681,2.2669,2.2654,2.2646,2.2629,2.2615,2.2605,2.2604,2.2621,2.2623,2.2616,2.2612,2.2611,2.2614,2.2712,2.2625,2.2626,2.2626,2.2627,2.2627,2.2643,2.2627,2.2628,2.2615,2.2614,2.2609,2.2595,2.2601,2.2588,2.2578,2.2588,2.257,2.2568,2.2557,2.2554,2.254,2.2554,2.2543,2.2541,2.2538,2.2536,2.2613,2.2538,2.2538,2.2538,2.2539,2.2539,0,2.256,2.2563,2.2551,2.2545,2.2536,2.2554,2.2551,2.2541,2.2525,2.2523,2.2513,2.2496,2.2484,2.2489,2.2478,2.2466,2.2474,2.2462,2.2464,2.2464,2.2523,2.2531,2.2456,2.2456,2.2456,2.2456,2.2456,2.2457,2.2516,2.249,2.2499,2.2473,2.2476,2.246,2.2456,2.2453,2.2451,2.2432,2.2423,2.2427,2.2428,2.2418,2.2407,2.2409,2.2405,2.2391,2.2396,2.2451,2.2459,2.2467,2.2475,2.239,2.239,2.2338,2.2338,2.2338]}]]